Estherville, IA

6:45 AM CDT on September 26, 2017 (GMT -0500)
Estherville Municipal

Weather History for KEST - September, 2011

Change the Weather History Date:

Tuesday, September 20, 2011

  Actual Average Record
Temperature  
Mean Temperature 61 °F 59 °F  
Max Temperature 71 °F 72 °F 96 °F (1984)
Min Temperature 51 °F 46 °F 28 °F (1991)
Degree Days  
Heating Degree Days 4 7  
Month to date heating degree days 121 84  
Since 1 July heating degree days 123 116  
Cooling Degree Days 0 1  
Month to date cooling degree days 45 40  
Year to date cooling degree days 745 580  
Growing Degree Days 10 (Base 50)    
Moisture  
Dew Point 46 °F    
Average Humidity 56    
Maximum Humidity 78    
Minimum Humidity 33    
Precipitation  
Precipitation 0.05 in 0.12 in 3.50 in (1950)
Month to date precipitation 0.57 2.18  
Year to date precipitation 18.75  
Sea Level Pressure  
Sea Level Pressure 29.85 in    
Wind  
Wind Speed 14 mph (SSW)    
Max Wind Speed 28 mph    
Max Gust Speed 43 mph    
Visibility 10 miles    
Events Rain , Thunderstorm    
T = Trace of Precipitation, MM = Missing Value Source: NWS Daily Summary

Daily Weather History Graph

Daily Weather History Graph

Search for Another Location

Airport or City:

Trip Planner

Search our weather history database for the weather conditions in past years. The results will help you decide how hot, cold, wet, or windy it might be!

Date:

Astronomy

Sep. 20, 2011 Rise Set
Actual Time 7:03 AM CDT 7:20 PM CDT
Civil Twilight 6:35 AM CDT 7:48 PM CDT
Nautical Twilight 6:01 AM CDT 8:22 PM CDT
Astronomical Twilight 5:27 AM CDT 8:56 PM CDT
Moon No Moon Rise 2:54 PM CDT (9/20)
Length of Visible Light 13h 13m
Length of Day
12h 16m
Waning Gibbous, 48% of the Moon is Illuminated
Sep 20
Waning Gibbous
Sep 27
New
Oct 3
First Quarter
Oct 11
Full
Oct 19
Last Quarter

Hourly Weather History & Observations

Time (CDT) Temp. Dew Point Humidity Pressure Visibility Wind Dir Wind Speed Gust Speed Precip Events Conditions
12:52 AM 53.1 °F 41.0 °F 64% 29.92 in 10.0 mi SSE 6.9 mph - N/A   Clear
1:52 AM 55.0 °F 43.0 °F 64% 29.90 in 10.0 mi SE 8.1 mph - N/A   Clear
2:40 AM 57.2 °F 44.6 °F 63% 29.90 in 10.0 mi South 10.4 mph - N/A Thunderstorm Scattered Clouds
2:52 AM 57.0 °F 44.1 °F 62% 29.90 in 9.0 mi SW 3.5 mph - N/A Thunderstorm Thunderstorm
3:22 AM 53.6 °F 46.4 °F 77% 29.89 in 10.0 mi SSE 6.9 mph - 0.01 in   Scattered Clouds
3:52 AM 51.1 °F 46.9 °F 86% 29.87 in 10.0 mi SE 5.8 mph - 0.01 in   Clear
4:52 AM 55.0 °F 48.0 °F 77% 29.86 in 10.0 mi SSE 6.9 mph - N/A   Overcast
5:03 AM 55.4 °F 48.2 °F 77% 29.88 in 10.0 mi SSE 4.6 mph - N/A Thunderstorm Overcast
5:18 AM 55.4 °F 48.2 °F 77% 29.86 in 10.0 mi SE 6.9 mph - 0.00 in Rain Light Rain
5:45 AM 55.4 °F 50.0 °F 82% 29.88 in 10.0 mi Variable 4.6 mph - 0.01 in Rain , Thunderstorm Light Thunderstorms and Rain
5:52 AM 55.9 °F 51.1 °F 84% 29.87 in 9.0 mi Calm Calm - 0.02 in Rain , Thunderstorm Light Thunderstorms and Rain
6:08 AM 55.4 °F 51.8 °F 88% 29.84 in 10.0 mi SE 8.1 mph - 0.01 in Rain Light Rain
6:52 AM 57.0 °F 52.0 °F 83% 29.81 in 10.0 mi SSE 12.7 mph - 0.02 in Rain Light Rain
7:52 AM 55.9 °F 52.0 °F 87% 29.83 in 10.0 mi South 9.2 mph - 0.00 in   Partly Cloudy
8:52 AM 60.1 °F 53.1 °F 78% 29.81 in 10.0 mi South 10.4 mph - N/A   Clear
10:52 AM 66.0 °F 50.0 °F 56% 29.81 in 10.0 mi West 19.6 mph 27.6 mph N/A   Clear
11:52 AM 66.9 °F 48.9 °F 52% 29.82 in 10.0 mi West 18.4 mph 29.9 mph N/A   Clear
1:52 PM 68.0 °F 42.1 °F 39% 29.82 in 10.0 mi WSW 19.6 mph 31.1 mph N/A   Clear
2:52 PM 70.0 °F 41.0 °F 35% 29.80 in 10.0 mi WSW 20.7 mph 33.4 mph N/A   Clear
3:52 PM 70.0 °F 39.0 °F 32% 29.80 in 10.0 mi West 24.2 mph 34.5 mph N/A   Partly Cloudy
4:52 PM 70.0 °F 39.0 °F 32% 29.80 in 10.0 mi West 19.6 mph 38.0 mph N/A   Partly Cloudy
5:52 PM 64.0 °F 41.0 °F 43% 29.84 in 10.0 mi West 21.9 mph 35.7 mph N/A   Clear
6:52 PM 62.1 °F 41.0 °F 46% 29.86 in 10.0 mi West 13.8 mph 25.3 mph N/A   Mostly Cloudy
8:52 PM 60.1 °F 42.1 °F 51% 29.86 in 10.0 mi West 13.8 mph 26.5 mph N/A   Scattered Clouds
9:52 PM 59.0 °F 43.0 °F 55% 29.86 in 10.0 mi West 19.6 mph 31.1 mph N/A   Overcast
10:52 PM 55.9 °F 44.1 °F 64% 29.87 in 10.0 mi West 17.3 mph 35.7 mph N/A   Clear
11:52 PM 53.1 °F 45.0 °F 74% 29.87 in 10.0 mi West 17.3 mph 24.2 mph N/A   Clear